Simultaneous Nadir Overpasses (SNOs) Predictions

Prediction of SNOs between TERRA and METOP-C Satellite Orbit:

Table of predicted SNOs for the next 14.0 days since TLE Epoch: 12/2/2023
Index Date (TERRA) Time (TERRA) Lat,Lon (TERRA) SZA (TERRA ) Date (METOP-C) Time (METOP-C) Lat,Lon (METOP-C) SZA (METOP-C ) Distance(km) Time Diff (sec)
1 12/03/2023 05:57:55 -80.11, -65.91 76.92 12/03/2023 05:57:15 -80.12, -65.95 76.93 0.79 40
2 12/03/2023 06:47:13 80.24, 102.78 103.28 12/03/2023 06:47:51 80.23, 102.69 103.28 1.72 38
3 12/05/2023 21:18:48 80.12,-116.12 103.42 12/05/2023 21:18:13 80.11,-116.21 103.40 1.96 35
4 12/05/2023 22:08:06 -80.26, 52.71 76.37 12/05/2023 22:08:49 -80.26, 52.74 76.35 0.65 43
5 12/08/2023 12:39:41 -80.10,-166.51 76.33 12/08/2023 12:39:12 -80.10,-166.60 76.35 1.79 29
6 12/08/2023 13:28:59 80.23, 2.18 103.87 12/08/2023 13:29:48 80.22, 2.08 103.87 1.94 49
7 12/11/2023 04:00:31 80.14, 143.53 103.96 12/11/2023 04:00:08 80.14, 143.57 103.95 0.82 23
8 12/11/2023 04:49:49 -80.27, -47.66 75.84 12/11/2023 04:50:44 -80.28, -47.52 75.81 2.71 55
9 12/13/2023 19:21:20 -80.15, 93.37 75.86 12/13/2023 19:21:04 -80.15, 93.52 75.85 3.14 16



Historial Predications of SNOs between TERRA and METOP-C
